Вернуться в каталог

ATLAS 5 CENTAUR DEB

АктивенHEO
NORAD 44686·DEBRIS·🇺🇸 United States

Запущен Oct 17, 2018 с Cape Canaveral Space Force Station

Loading…

Ближайшие Пролёты (ближайшие 24 часа)

TLE

УстаревающийSource: Space-Track

Эпоха: Sep 1, 2026, 21:11 UTC

1 44686U 18079AY  26244.88302073 -.00000121  00000-0  00000+0 0  9996
2 44686  12.7781  67.9238 4630175 249.3876  56.1617  1.69097359 44874

Отслеживайте ATLAS 5 CENTAUR DEB в реальном времени с AllMySat

Download on the App Store